Location: Tamazert
(32.6352°N, 5.2072°W)
Time: 03:49:57
(UTC+00:00)

Vanguard 1 Rocket - Pass Details

Date: 07 October 2022
Orbit: 650 x 4225 km, 34.3° (Epoch: 04 December)

Event Time Altitude Azimuth Distance (km) Brightness Sun altitude
Rises 13:35:37 0° 180° (S) 7,656 12.7 46.5°
Reaches altitude 10° 13:44:55 10° 160° (SSE) 7,150 12.4 45.4°
Maximum altitude 13:57:00 16° 131° (SE) 6,926 12.1 43.9°
Drops below altitude 10° 14:08:56 10° 103° (ESE) 7,233 11.8 42.2°
Sets 14:18:00 0° 84° (E) 7,820 11.8 40.9°
